Time,TemperatureF,DewpointF,PressureIn,WindDirection,WindDirectionDegrees,WindSpeedMPH,WindSpeedGustMPH,Humidity,HourlyPrecipIn,Conditions,Clouds,dailyrainin,SoftwareType,DateUTC
2013-07-10 00:01:00,62.9,39.0,29.21,WSW,247,0.0,-999.0,41,0.00,,,0.00,Rainwise IP-100,2013-07-10 07:01:00,
2013-07-10 00:06:00,62.8,39.0,29.21,WSW,247,0.0,-999.0,42,0.00,,,0.00,Rainwise IP-100,2013-07-10 07:06:00,
2013-07-10 00:11:00,62.5,39.0,29.22,WSW,247,0.0,-999.0,42,0.00,,,0.00,Rainwise IP-100,2013-07-10 07:11:00,
2013-07-10 00:16:00,62.1,39.0,29.22,WSW,247,0.0,-999.0,43,0.00,,,0.00,Rainwise IP-100,2013-07-10 07:16:00,
2013-07-10 00:21:00,61.6,39.0,29.22,WSW,247,0.0,-999.0,44,0.00,,,0.00,Rainwise IP-100,2013-07-10 07:21:00,
2013-07-10 00:26:00,61.3,39.0,29.22,WSW,247,0.0,-999.0,44,0.00,,,0.00,Rainwise IP-100,2013-07-10 07:26:00,
2013-07-10 00:31:00,61.1,39.0,29.22,WSW,247,0.0,-999.0,44,0.00,,,0.00,Rainwise IP-100,2013-07-10 07:31:00,
2013-07-10 00:36:00,60.9,39.0,29.22,WSW,247,1.4,-999.0,44,0.00,,,0.00,Rainwise IP-100,2013-07-10 07:36:00,
2013-07-10 00:41:00,60.9,39.0,29.23,WSW,247,1.9,-999.0,45,0.00,,,0.00,Rainwise IP-100,2013-07-10 07:41:00,
2013-07-10 00:46:00,61.1,40.0,29.23,WSW,247,0.0,-999.0,46,0.00,,,0.00,Rainwise IP-100,2013-07-10 07:46:00,
2013-07-10 00:51:00,61.2,40.0,29.22,WSW,247,0.0,-999.0,46,0.00,,,0.00,Rainwise IP-100,2013-07-10 07:51:00,
2013-07-10 00:56:00,60.9,39.0,29.22,WSW,247,0.0,-999.0,44,0.00,,,0.00,Rainwise IP-100,2013-07-10 07:56:00,
2013-07-10 01:01:00,60.7,38.0,29.22,WSW,247,0.0,-999.0,43,0.00,,,0.00,Rainwise IP-100,2013-07-10 08:01:00,
2013-07-10 01:06:00,60.5,37.0,29.22,WSW,247,2.1,-999.0,42,0.00,,,0.00,Rainwise IP-100,2013-07-10 08:06:00,
2013-07-10 01:11:00,60.3,38.0,29.22,WSW,247,0.0,-999.0,44,0.00,,,0.00,Rainwise IP-100,2013-07-10 08:11:00,
2013-07-10 01:16:00,60.3,39.0,29.21,WSW,247,0.0,-999.0,46,0.00,,,0.00,Rainwise IP-100,2013-07-10 08:16:00,
2013-07-10 01:21:00,60.3,39.0,29.22,WSW,247,1.2,-999.0,46,0.00,,,0.00,Rainwise IP-100,2013-07-10 08:21:00,
2013-07-10 01:26:00,60.0,38.0,29.21,WSW,247,2.6,-999.0,45,0.00,,,0.00,Rainwise IP-100,2013-07-10 08:26:00,
2013-07-10 01:31:00,59.8,38.0,29.21,WSW,247,0.0,-999.0,44,0.00,,,0.00,Rainwise IP-100,2013-07-10 08:31:00,
2013-07-10 01:36:00,59.8,38.0,29.21,WSW,247,0.0,-999.0,44,0.00,,,0.00,Rainwise IP-100,2013-07-10 08:36:00,
2013-07-10 01:41:00,59.8,38.0,29.21,WSW,247,0.0,-999.0,45,0.00,,,0.00,Rainwise IP-100,2013-07-10 08:41:00,
2013-07-10 01:46:00,59.8,39.0,29.21,WSW,247,0.0,-999.0,47,0.00,,,0.00,Rainwise IP-100,2013-07-10 08:46:00,
2013-07-10 01:51:00,59.8,40.0,29.21,WSW,247,0.0,-999.0,49,0.00,,,0.00,Rainwise IP-100,2013-07-10 08:51:00,
2013-07-10 01:56:00,59.7,40.0,29.21,WSW,247,0.0,-999.0,49,0.00,,,0.00,Rainwise IP-100,2013-07-10 08:56:00,
2013-07-10 02:01:00,59.5,39.0,29.20,WSW,247,1.2,-999.0,47,0.00,,,0.00,Rainwise IP-100,2013-07-10 09:01:00,
2013-07-10 02:06:00,59.3,38.0,29.20,WSW,247,0.0,-999.0,45,0.00,,,0.00,Rainwise IP-100,2013-07-10 09:06:00,
2013-07-10 02:11:00,59.2,37.0,29.20,WSW,247,0.0,-999.0,44,0.00,,,0.00,Rainwise IP-100,2013-07-10 09:11:00,
2013-07-10 02:16:00,58.8,38.0,29.20,WSW,247,0.0,-999.0,45,0.00,,,0.00,Rainwise IP-100,2013-07-10 09:16:00,
2013-07-10 02:21:00,58.7,39.0,29.20,WSW,247,0.0,-999.0,47,0.00,,,0.00,Rainwise IP-100,2013-07-10 09:21:00,
2013-07-10 02:26:00,58.6,38.0,29.20,WSW,247,0.0,-999.0,46,0.00,,,0.00,Rainwise IP-100,2013-07-10 09:26:00,
2013-07-10 02:31:00,58.4,38.0,29.20,WSW,247,0.0,-999.0,46,0.00,,,0.00,Rainwise IP-100,2013-07-10 09:31:00,
2013-07-10 02:36:00,58.5,39.0,29.20,WSW,247,0.0,-999.0,47,0.00,,,0.00,Rainwise IP-100,2013-07-10 09:36:00,
2013-07-10 02:41:00,58.7,38.0,29.20,WSW,247,0.0,-999.0,46,0.00,,,0.00,Rainwise IP-100,2013-07-10 09:41:00,
2013-07-10 02:46:00,58.5,39.0,29.20,WSW,247,0.0,-999.0,48,0.00,,,0.00,Rainwise IP-100,2013-07-10 09:46:00,
2013-07-10 02:51:00,58.2,40.0,29.20,WSW,247,0.0,-999.0,50,0.00,,,0.00,Rainwise IP-100,2013-07-10 09:51:00,
2013-07-10 02:56:00,58.1,39.0,29.20,WSW,247,0.0,-999.0,48,0.00,,,0.00,Rainwise IP-100,2013-07-10 09:56:00,
2013-07-10 03:01:00,57.9,39.0,29.20,WSW,247,0.0,-999.0,48,0.00,,,0.00,Rainwise IP-100,2013-07-10 10:01:00,
2013-07-10 03:06:00,57.4,39.0,29.20,WSW,247,0.0,-999.0,49,0.00,,,0.00,Rainwise IP-100,2013-07-10 10:06:00,
2013-07-10 03:11:00,57.0,38.0,29.20,WSW,247,0.0,-999.0,49,0.00,,,0.00,Rainwise IP-100,2013-07-10 10:11:00,
2013-07-10 03:15:00,56.8,38.0,29.20,WSW,247,0.0,-999.0,49,0.00,,,0.00,Rainwise IP-100,2013-07-10 10:15:00,
2013-07-10 03:20:00,56.5,38.0,29.20,WSW,247,1.2,-999.0,49,0.00,,,0.00,Rainwise IP-100,2013-07-10 10:20:00,
2013-07-10 03:25:00,56.3,38.0,29.20,WSW,247,2.3,-999.0,49,0.00,,,0.00,Rainwise IP-100,2013-07-10 10:25:00,
2013-07-10 03:30:00,56.4,38.0,29.20,WSW,247,0.0,-999.0,50,0.00,,,0.00,Rainwise IP-100,2013-07-10 10:30:00,
2013-07-10 03:35:00,56.6,38.0,29.20,WSW,247,1.6,-999.0,50,0.00,,,0.00,Rainwise IP-100,2013-07-10 10:35:00,
2013-07-10 03:40:00,56.5,38.0,29.20,WSW,247,0.0,-999.0,51,0.00,,,0.00,Rainwise IP-100,2013-07-10 10:40:00,
2013-07-10 03:45:00,56.3,39.0,29.20,WSW,247,0.0,-999.0,52,0.00,,,0.00,Rainwise IP-100,2013-07-10 10:45:00,
2013-07-10 03:50:00,56.1,38.0,29.19,WSW,247,0.0,-999.0,52,0.00,,,0.00,Rainwise IP-100,2013-07-10 10:50:00,
2013-07-10 03:55:00,55.7,39.0,29.20,WSW,247,0.0,-999.0,53,0.00,,,0.00,Rainwise IP-100,2013-07-10 10:55:00,
2013-07-10 04:00:00,55.2,39.0,29.20,WSW,247,0.0,-999.0,55,0.00,,,0.00,Rainwise IP-100,2013-07-10 11:00:00,
2013-07-10 04:05:00,55.0,39.0,29.19,WSW,247,0.0,-999.0,54,0.00,,,0.00,Rainwise IP-100,2013-07-10 11:05:00,
2013-07-10 04:10:00,54.8,39.0,29.20,WSW,247,0.0,-999.0,54,0.00,,,0.00,Rainwise IP-100,2013-07-10 11:10:00,
2013-07-10 04:15:00,54.8,39.0,29.19,WSW,247,0.0,-999.0,55,0.00,,,0.00,Rainwise IP-100,2013-07-10 11:15:00,
2013-07-10 04:20:00,55.1,39.0,29.20,WSW,247,0.0,-999.0,54,0.00,,,0.00,Rainwise IP-100,2013-07-10 11:20:00,
2013-07-10 04:25:00,55.3,38.0,29.20,WSW,247,0.0,-999.0,53,0.00,,,0.00,Rainwise IP-100,2013-07-10 11:25:00,
2013-07-10 04:30:00,55.1,39.0,29.20,WSW,247,0.0,-999.0,54,0.00,,,0.00,Rainwise IP-100,2013-07-10 11:30:00,
2013-07-10 04:35:00,54.6,38.0,29.20,WSW,247,0.0,-999.0,54,0.00,,,0.00,Rainwise IP-100,2013-07-10 11:35:00,
2013-07-10 04:40:00,54.5,38.0,29.20,WSW,247,0.0,-999.0,54,0.00,,,0.00,Rainwise IP-100,2013-07-10 11:40:00,
2013-07-10 04:45:00,54.5,38.0,29.20,WSW,247,0.0,-999.0,54,0.00,,,0.00,Rainwise IP-100,2013-07-10 11:45:00,
2013-07-10 04:50:00,54.5,38.0,29.20,WSW,247,0.0,-999.0,54,0.00,,,0.00,Rainwise IP-100,2013-07-10 11:50:00,
2013-07-10 04:55:00,54.2,38.0,29.20,WSW,247,0.0,-999.0,55,0.00,,,0.00,Rainwise IP-100,2013-07-10 11:55:00,
2013-07-10 05:00:00,53.9,38.0,29.20,WSW,247,0.0,-999.0,55,0.00,,,0.00,Rainwise IP-100,2013-07-10 12:00:00,
2013-07-10 05:01:00,53.8,38.0,29.20,WSW,247,0.0,-999.0,55,0.00,,,0.00,Rainwise IP-100,2013-07-10 12:01:00,
2013-07-10 05:06:00,53.6,38.0,29.20,WSW,247,0.0,-999.0,55,0.00,,,0.00,Rainwise IP-100,2013-07-10 12:06:00,
2013-07-10 05:11:00,53.3,38.0,29.20,WSW,247,1.9,-999.0,56,0.00,,,0.00,Rainwise IP-100,2013-07-10 12:11:00,
2013-07-10 05:16:00,53.2,38.0,29.20,WSW,247,1.4,-999.0,57,0.00,,,0.00,Rainwise IP-100,2013-07-10 12:16:00,
2013-07-10 05:21:00,53.3,38.0,29.20,WSW,247,0.0,-999.0,57,0.00,,,0.00,Rainwise IP-100,2013-07-10 12:21:00,
2013-07-10 05:26:00,53.4,38.0,29.20,WSW,247,0.0,-999.0,57,0.00,,,0.00,Rainwise IP-100,2013-07-10 12:26:00,
2013-07-10 05:31:00,53.1,38.0,29.21,WSW,247,1.4,-999.0,57,0.00,,,0.00,Rainwise IP-100,2013-07-10 12:31:00,
2013-07-10 05:36:00,52.9,39.0,29.20,WSW,247,0.0,-999.0,59,0.00,,,0.00,Rainwise IP-100,2013-07-10 12:36:00,
2013-07-10 05:40:00,52.9,39.0,29.20,WSW,247,0.0,-999.0,59,0.00,,,0.00,Rainwise IP-100,2013-07-10 12:40:00,
2013-07-10 05:45:00,52.8,39.0,29.20,WSW,247,0.0,-999.0,59,0.00,,,0.00,Rainwise IP-100,2013-07-10 12:45:00,
2013-07-10 05:50:00,52.5,39.0,29.20,SSW,202,0.0,-999.0,60,0.00,,,0.00,Rainwise IP-100,2013-07-10 12:50:00,
2013-07-10 05:55:00,52.2,39.0,29.20,SSW,202,0.0,-999.0,61,0.00,,,0.00,Rainwise IP-100,2013-07-10 12:55:00,
2013-07-10 06:00:00,52.1,39.0,29.20,SSW,202,0.0,-999.0,61,0.00,,,0.00,Rainwise IP-100,2013-07-10 13:00:00,
2013-07-10 06:05:00,52.1,39.0,29.20,SSW,202,0.0,-999.0,61,0.00,,,0.00,Rainwise IP-100,2013-07-10 13:05:00,
2013-07-10 06:10:00,52.2,39.0,29.20,SSW,202,0.0,-999.0,61,0.00,,,0.00,Rainwise IP-100,2013-07-10 13:10:00,
2013-07-10 06:16:00,52.6,39.0,29.21,SSW,202,0.0,-999.0,61,0.00,,,0.00,Rainwise IP-100,2013-07-10 13:16:00,
2013-07-10 06:21:00,52.7,39.0,29.21,SSW,202,0.0,-999.0,61,0.00,,,0.00,Rainwise IP-100,2013-07-10 13:21:00,
2013-07-10 06:26:00,52.5,40.0,29.20,SSW,202,0.0,-999.0,62,0.00,,,0.00,Rainwise IP-100,2013-07-10 13:26:00,
2013-07-10 06:31:00,52.2,40.0,29.21,SSW,202,0.0,-999.0,64,0.00,,,0.00,Rainwise IP-100,2013-07-10 13:31:00,
2013-07-10 06:36:00,52.0,40.0,29.21,SSW,202,0.0,-999.0,64,0.00,,,0.00,Rainwise IP-100,2013-07-10 13:36:00,
2013-07-10 06:41:00,52.2,40.0,29.21,SSW,202,0.0,-999.0,63,0.00,,,0.00,Rainwise IP-100,2013-07-10 13:41:00,
2013-07-10 06:46:00,52.6,40.0,29.21,SSW,202,0.0,-999.0,63,0.00,,,0.00,Rainwise IP-100,2013-07-10 13:46:00,
2013-07-10 06:51:00,52.7,40.0,29.21,SSW,202,0.0,-999.0,63,0.00,,,0.00,Rainwise IP-100,2013-07-10 13:51:00,
2013-07-10 06:56:00,53.0,40.0,29.21,SSW,202,0.0,-999.0,62,0.00,,,0.00,Rainwise IP-100,2013-07-10 13:56:00,
2013-07-10 07:01:00,53.6,40.0,29.21,SSW,202,0.0,-999.0,60,0.00,,,0.00,Rainwise IP-100,2013-07-10 14:01:00,
2013-07-10 07:06:00,54.5,40.0,29.21,SSW,202,0.0,-999.0,59,0.00,,,0.00,Rainwise IP-100,2013-07-10 14:06:00,
2013-07-10 07:11:00,55.5,41.0,29.22,SSW,202,0.0,-999.0,58,0.00,,,0.00,Rainwise IP-100,2013-07-10 14:11:00,
2013-07-10 07:16:00,57.1,42.0,29.22,SSW,202,0.0,-999.0,57,0.00,,,0.00,Rainwise IP-100,2013-07-10 14:16:00,
2013-07-10 07:21:00,59.2,43.0,29.22,SSW,202,0.0,-999.0,55,0.00,,,0.00,Rainwise IP-100,2013-07-10 14:21:00,
2013-07-10 07:26:00,60.7,43.0,29.21,SSW,202,0.0,-999.0,52,0.00,,,0.00,Rainwise IP-100,2013-07-10 14:26:00,
2013-07-10 07:31:00,61.7,42.0,29.22,SSW,202,0.0,-999.0,49,0.00,,,0.00,Rainwise IP-100,2013-07-10 14:31:00,
2013-07-10 07:36:00,62.4,42.0,29.22,SSE,157,0.0,-999.0,48,0.00,,,0.00,Rainwise IP-100,2013-07-10 14:36:00,
2013-07-10 07:41:00,62.9,42.0,29.22,SE,135,0.0,-999.0,46,0.00,,,0.00,Rainwise IP-100,2013-07-10 14:41:00,
2013-07-10 07:46:00,63.6,43.0,29.22,SE,135,0.0,-999.0,47,0.00,,,0.00,Rainwise IP-100,2013-07-10 14:46:00,
2013-07-10 07:51:00,64.4,44.0,29.21,ESE,112,0.0,-999.0,47,0.00,,,0.00,Rainwise IP-100,2013-07-10 14:51:00,
2013-07-10 07:56:00,65.0,44.0,29.21,ESE,112,0.0,-999.0,47,0.00,,,0.00,Rainwise IP-100,2013-07-10 14:56:00,
2013-07-10 08:01:00,65.5,45.0,29.22,ESE,112,0.0,-999.0,48,0.00,,,0.00,Rainwise IP-100,2013-07-10 15:01:00,
2013-07-10 08:06:00,66.4,47.0,29.21,ESE,112,0.0,-999.0,49,0.00,,,0.00,Rainwise IP-100,2013-07-10 15:06:00,
2013-07-10 08:11:00,67.5,47.5,29.21,ESE,112,1.9,-999.0,49,0.00,,,0.00,Rainwise IP-100,2013-07-10 15:11:00,
2013-07-10 08:16:00,68.2,47.5,29.21,ESE,112,1.9,-999.0,48,0.00,,,0.00,Rainwise IP-100,2013-07-10 15:16:00,
2013-07-10 08:21:00,68.9,47.5,29.21,ESE,112,0.0,-999.0,47,0.00,,,0.00,Rainwise IP-100,2013-07-10 15:21:00,
2013-07-10 08:26:00,69.4,47.5,29.22,ESE,112,1.2,-999.0,46,0.00,,,0.00,Rainwise IP-100,2013-07-10 15:26:00,
2013-07-10 08:31:00,69.6,47.5,29.21,ESE,112,1.9,-999.0,45,0.00,,,0.00,Rainwise IP-100,2013-07-10 15:31:00,
2013-07-10 08:36:00,70.2,47.5,29.21,ESE,112,0.0,-999.0,44,0.00,,,0.00,Rainwise IP-100,2013-07-10 15:36:00,
2013-07-10 08:41:00,70.9,47.5,29.21,SE,135,1.6,-999.0,43,0.00,,,0.00,Rainwise IP-100,2013-07-10 15:41:00,
2013-07-10 08:46:00,71.4,47.0,29.21,ENE,67,3.0,-999.0,41,0.00,,,0.00,Rainwise IP-100,2013-07-10 15:46:00,
2013-07-10 08:51:00,71.8,46.0,29.21,SSE,157,1.4,-999.0,40,0.00,,,0.00,Rainwise IP-100,2013-07-10 15:51:00,
2013-07-10 08:56:00,72.4,46.0,29.21,ENE,67,1.6,-999.0,39,0.00,,,0.00,Rainwise IP-100,2013-07-10 15:56:00,
2013-07-10 09:01:00,73.3,47.0,29.22,SSW,202,2.6,-999.0,38,0.00,,,0.00,Rainwise IP-100,2013-07-10 16:01:00,
2013-07-10 09:06:00,74.4,47.0,29.21,ESE,112,0.0,-999.0,37,0.00,,,0.00,Rainwise IP-100,2013-07-10 16:06:00,
2013-07-10 09:11:00,75.2,47.0,29.21,ENE,67,1.9,-999.0,36,0.00,,,0.00,Rainwise IP-100,2013-07-10 16:11:00,
2013-07-10 09:16:00,75.7,46.0,29.20,ENE,67,0.0,-999.0,35,0.00,,,0.00,Rainwise IP-100,2013-07-10 16:16:00,
2013-07-10 09:21:00,77.3,46.0,29.21,NNE,22,0.0,-999.0,33,0.00,,,0.00,Rainwise IP-100,2013-07-10 16:21:00,
2013-07-10 09:26:00,78.4,46.0,29.21,SSE,157,1.6,-999.0,32,0.00,,,0.00,Rainwise IP-100,2013-07-10 16:26:00,
2013-07-10 09:31:00,78.9,46.0,29.20,SSE,157,1.6,-999.0,31,0.00,,,0.00,Rainwise IP-100,2013-07-10 16:31:00,
2013-07-10 09:36:00,80.2,45.0,29.20,SSW,202,0.0,-999.0,29,0.00,,,0.00,Rainwise IP-100,2013-07-10 16:36:00,
2013-07-10 09:41:00,81.3,45.0,29.20,SSE,157,2.6,-999.0,28,0.00,,,0.00,Rainwise IP-100,2013-07-10 16:41:00,
2013-07-10 09:46:00,81.2,44.0,29.20,SSE,157,2.1,-999.0,27,0.00,,,0.00,Rainwise IP-100,2013-07-10 16:46:00,
2013-07-10 09:51:00,81.1,42.0,29.20,SE,135,1.9,-999.0,25,0.00,,,0.00,Rainwise IP-100,2013-07-10 16:51:00,
2013-07-10 09:56:00,81.6,42.0,29.19,ESE,112,1.6,-999.0,25,0.00,,,0.00,Rainwise IP-100,2013-07-10 16:56:00,
2013-07-10 10:01:00,82.0,43.0,29.19,SSE,157,1.4,-999.0,25,0.00,,,0.00,Rainwise IP-100,2013-07-10 17:01:00,
2013-07-10 10:06:00,82.6,42.0,29.19,SE,135,0.0,-999.0,24,0.00,,,0.00,Rainwise IP-100,2013-07-10 17:06:00,
2013-07-10 10:11:00,83.4,43.0,29.19,SSE,157,2.6,-999.0,24,0.00,,,0.00,Rainwise IP-100,2013-07-10 17:11:00,
2013-07-10 10:16:00,84.1,42.0,29.19,SE,135,0.0,-999.0,23,0.00,,,0.00,Rainwise IP-100,2013-07-10 17:16:00,
2013-07-10 10:21:00,84.8,41.0,29.18,ENE,67,0.0,-999.0,22,0.00,,,0.00,Rainwise IP-100,2013-07-10 17:21:00,
2013-07-10 10:26:00,85.4,43.0,29.18,SSE,157,2.6,-999.0,23,0.00,,,0.00,Rainwise IP-100,2013-07-10 17:26:00,
2013-07-10 10:31:00,85.6,42.0,29.18,SSE,157,2.3,-999.0,22,0.00,,,0.00,Rainwise IP-100,2013-07-10 17:31:00,
2013-07-10 10:36:00,85.7,44.0,29.19,ENE,67,3.0,-999.0,23,0.00,,,0.00,Rainwise IP-100,2013-07-10 17:36:00,
2013-07-10 10:41:00,86.2,44.0,29.18,SSW,202,4.2,-999.0,23,0.00,,,0.00,Rainwise IP-100,2013-07-10 17:41:00,
2013-07-10 10:46:00,87.1,44.0,29.18,ESE,112,2.3,-999.0,22,0.00,,,0.00,Rainwise IP-100,2013-07-10 17:46:00,
2013-07-10 10:51:00,87.7,43.0,29.18,SSE,157,0.0,-999.0,21,0.00,,,0.00,Rainwise IP-100,2013-07-10 17:51:00,
2013-07-10 10:56:00,87.7,43.0,29.18,ESE,112,0.0,-999.0,21,0.00,,,0.00,Rainwise IP-100,2013-07-10 17:56:00,
2013-07-10 11:01:00,88.9,44.0,29.18,ENE,67,3.5,-999.0,21,0.00,,,0.00,Rainwise IP-100,2013-07-10 18:01:00,
2013-07-10 11:06:00,90.0,45.0,29.18,SSW,202,0.0,-999.0,21,0.00,,,0.00,Rainwise IP-100,2013-07-10 18:06:00,
2013-07-10 11:11:00,90.1,45.0,29.18,ENE,67,2.3,-999.0,21,0.00,,,0.00,Rainwise IP-100,2013-07-10 18:11:00,
2013-07-10 11:16:00,90.0,45.0,29.17,ENE,67,2.6,-999.0,21,0.00,,,0.00,Rainwise IP-100,2013-07-10 18:16:00,
2013-07-10 11:21:00,91.0,46.0,29.18,SSW,202,2.6,-999.0,21,0.00,,,0.00,Rainwise IP-100,2013-07-10 18:21:00,
2013-07-10 11:26:00,91.8,47.0,29.17,SSE,157,3.0,-999.0,21,0.00,,,0.00,Rainwise IP-100,2013-07-10 18:26:00,
2013-07-10 11:31:00,91.9,45.0,29.17,SSW,202,0.0,-999.0,20,0.00,,,0.00,Rainwise IP-100,2013-07-10 18:31:00,
2013-07-10 11:36:00,92.0,45.0,29.17,East,90,0.0,-999.0,20,0.00,,,0.00,Rainwise IP-100,2013-07-10 18:36:00,
2013-07-10 11:41:00,92.4,44.0,29.17,ESE,112,0.0,-999.0,19,0.00,,,0.00,Rainwise IP-100,2013-07-10 18:41:00,
2013-07-10 11:46:00,92.6,43.0,29.17,SSE,157,2.1,-999.0,18,0.00,,,0.00,Rainwise IP-100,2013-07-10 18:46:00,
2013-07-10 11:51:00,93.1,40.0,29.17,SSW,202,4.0,-999.0,16,0.00,,,0.00,Rainwise IP-100,2013-07-10 18:51:00,
2013-07-10 11:56:00,94.5,36.0,29.17,SSW,202,3.0,-999.0,13,0.00,,,0.00,Rainwise IP-100,2013-07-10 18:56:00,
2013-07-10 12:01:00,95.4,35.0,29.17,SSE,157,6.1,-999.0,12,0.00,,,0.00,Rainwise IP-100,2013-07-10 19:01:00,
2013-07-10 12:06:00,95.9,33.0,29.17,ESE,112,3.0,-999.0,11,0.00,,,0.00,Rainwise IP-100,2013-07-10 19:06:00,
2013-07-10 12:11:00,95.7,33.0,29.17,East,90,2.1,-999.0,11,0.00,,,0.00,Rainwise IP-100,2013-07-10 19:11:00,
2013-07-10 12:16:00,95.3,35.0,29.17,SSE,157,4.7,-999.0,12,0.00,,,0.00,Rainwise IP-100,2013-07-10 19:16:00,
2013-07-10 12:21:00,95.1,37.0,29.17,SSE,157,6.8,-999.0,13,0.00,,,0.00,Rainwise IP-100,2013-07-10 19:21:00,
2013-07-10 12:26:00,95.6,35.0,29.17,SSW,202,4.0,-999.0,12,0.00,,,0.00,Rainwise IP-100,2013-07-10 19:26:00,
2013-07-10 12:31:00,96.7,38.0,29.17,SSE,157,2.6,-999.0,13,0.00,,,0.00,Rainwise IP-100,2013-07-10 19:31:00,
2013-07-10 12:36:00,96.8,38.0,29.17,SSW,202,7.9,-999.0,13,0.00,,,0.00,Rainwise IP-100,2013-07-10 19:36:00,
2013-07-10 12:41:00,96.4,37.0,29.17,SSE,157,4.0,-999.0,13,0.00,,,0.00,Rainwise IP-100,2013-07-10 19:41:00,
2013-07-10 12:46:00,96.3,37.0,29.17,WSW,247,4.4,-999.0,13,0.00,,,0.00,Rainwise IP-100,2013-07-10 19:46:00,
2013-07-10 12:51:00,96.6,36.0,29.17,SSW,202,4.2,-999.0,12,0.00,,,0.00,Rainwise IP-100,2013-07-10 19:51:00,
2013-07-10 12:56:00,96.6,36.0,29.16,WSW,247,3.7,-999.0,12,0.00,,,0.00,Rainwise IP-100,2013-07-10 19:56:00,
2013-07-10 13:01:00,96.1,36.0,29.16,SSW,202,4.4,-999.0,12,0.00,,,0.00,Rainwise IP-100,2013-07-10 20:01:00,
2013-07-10 13:06:00,95.8,35.0,29.17,SSW,202,6.3,-999.0,12,0.00,,,0.00,Rainwise IP-100,2013-07-10 20:06:00,
2013-07-10 13:11:00,96.0,36.0,29.17,WSW,247,6.5,-999.0,12,0.00,,,0.00,Rainwise IP-100,2013-07-10 20:11:00,
2013-07-10 13:16:00,96.0,36.0,29.17,SSE,157,2.1,-999.0,12,0.00,,,0.00,Rainwise IP-100,2013-07-10 20:16:00,
2013-07-10 13:21:00,95.8,37.0,29.17,SW,225,4.9,-999.0,13,0.00,,,0.00,Rainwise IP-100,2013-07-10 20:21:00,
2013-07-10 13:26:00,96.0,39.0,29.17,South,180,4.0,-999.0,14,0.00,,,0.00,Rainwise IP-100,2013-07-10 20:26:00,
2013-07-10 13:31:00,95.8,37.0,29.16,SSE,157,6.3,-999.0,13,0.00,,,0.00,Rainwise IP-100,2013-07-10 20:31:00,
2013-07-10 13:36:00,95.4,37.0,29.16,ESE,112,3.0,-999.0,13,0.00,,,0.00,Rainwise IP-100,2013-07-10 20:36:00,
2013-07-10 13:41:00,95.6,37.0,29.16,SSW,202,6.1,-999.0,13,0.00,,,0.00,Rainwise IP-100,2013-07-10 20:41:00,
2013-07-10 13:46:00,95.5,35.0,29.16,SW,225,1.9,-999.0,12,0.00,,,0.00,Rainwise IP-100,2013-07-10 20:46:00,
2013-07-10 13:51:00,95.5,35.0,29.17,SSW,202,4.4,-999.0,12,0.00,,,0.00,Rainwise IP-100,2013-07-10 20:51:00,
2013-07-10 13:56:00,95.6,37.0,29.16,SSE,157,2.6,-999.0,13,0.00,,,0.00,Rainwise IP-100,2013-07-10 20:56:00,
2013-07-10 14:01:00,95.4,37.0,29.17,SSW,202,6.5,-999.0,13,0.00,,,0.00,Rainwise IP-100,2013-07-10 21:01:00,
2013-07-10 14:06:00,95.3,39.0,29.16,SSW,202,3.7,-999.0,14,0.00,,,0.00,Rainwise IP-100,2013-07-10 21:06:00,
2013-07-10 14:11:00,95.2,40.0,29.16,SSW,202,2.8,-999.0,15,0.00,,,0.00,Rainwise IP-100,2013-07-10 21:11:00,
2013-07-10 14:16:00,94.9,42.0,29.16,SW,225,4.9,-999.0,16,0.00,,,0.00,Rainwise IP-100,2013-07-10 21:16:00,
2013-07-10 14:21:00,94.9,40.0,29.17,SSW,202,2.1,-999.0,15,0.00,,,0.00,Rainwise IP-100,2013-07-10 21:21:00,
2013-07-10 14:26:00,95.0,40.0,29.17,South,180,4.7,-999.0,15,0.00,,,0.00,Rainwise IP-100,2013-07-10 21:26:00,
2013-07-10 14:31:00,94.6,40.0,29.16,SSW,202,8.4,-999.0,15,0.00,,,0.00,Rainwise IP-100,2013-07-10 21:31:00,
2013-07-10 14:36:00,94.6,40.0,29.17,SSW,202,4.9,-999.0,15,0.00,,,0.00,Rainwise IP-100,2013-07-10 21:36:00,
2013-07-10 14:41:00,94.6,40.0,29.16,SSW,202,8.4,-999.0,15,0.00,,,0.00,Rainwise IP-100,2013-07-10 21:41:00,
2013-07-10 14:46:00,94.3,39.0,29.16,WSW,247,4.2,-999.0,15,0.00,,,0.00,Rainwise IP-100,2013-07-10 21:46:00,
2013-07-10 14:51:00,94.5,41.0,29.16,WSW,247,6.8,-999.0,16,0.00,,,0.00,Rainwise IP-100,2013-07-10 21:51:00,
2013-07-10 14:56:00,94.8,41.0,29.15,SSW,202,4.4,-999.0,16,0.00,,,0.00,Rainwise IP-100,2013-07-10 21:56:00,
2013-07-10 15:01:00,94.8,40.0,29.15,South,180,6.3,-999.0,15,0.00,,,0.00,Rainwise IP-100,2013-07-10 22:01:00,
2013-07-10 15:06:00,94.9,40.0,29.15,WSW,247,2.1,-999.0,15,0.00,,,0.00,Rainwise IP-100,2013-07-10 22:06:00,
2013-07-10 15:11:00,95.1,40.0,29.15,SSW,202,8.6,-999.0,15,0.00,,,0.00,Rainwise IP-100,2013-07-10 22:11:00,
2013-07-10 15:16:00,95.3,40.0,29.15,SSE,157,6.3,-999.0,15,0.00,,,0.00,Rainwise IP-100,2013-07-10 22:16:00,
2013-07-10 15:21:00,95.0,40.0,29.15,WNW,292,2.6,-999.0,15,0.00,,,0.00,Rainwise IP-100,2013-07-10 22:21:00,
2013-07-10 15:26:00,94.9,40.0,29.15,WSW,247,2.3,-999.0,15,0.00,,,0.00,Rainwise IP-100,2013-07-10 22:26:00,
2013-07-10 15:31:00,95.2,38.0,29.15,SSW,202,7.7,-999.0,14,0.00,,,0.00,Rainwise IP-100,2013-07-10 22:31:00,
2013-07-10 15:36:00,95.0,38.0,29.15,West,270,2.8,-999.0,14,0.00,,,0.00,Rainwise IP-100,2013-07-10 22:36:00,
2013-07-10 15:41:00,94.6,36.0,29.15,SSW,202,5.1,-999.0,13,0.00,,,0.00,Rainwise IP-100,2013-07-10 22:41:00,
2013-07-10 15:46:00,94.9,37.0,29.15,WSW,247,5.1,-999.0,13,0.00,,,0.00,Rainwise IP-100,2013-07-10 22:46:00,
2013-07-10 15:51:00,95.4,35.0,29.15,SSW,202,7.5,-999.0,12,0.00,,,0.00,Rainwise IP-100,2013-07-10 22:51:00,
2013-07-10 15:56:00,95.3,35.0,29.14,WNW,292,3.7,-999.0,12,0.00,,,0.00,Rainwise IP-100,2013-07-10 22:56:00,
2013-07-10 16:01:00,95.5,35.0,29.15,SSW,202,1.2,-999.0,12,0.00,,,0.00,Rainwise IP-100,2013-07-10 23:01:00,
2013-07-10 16:06:00,95.0,35.0,29.14,WSW,247,5.4,-999.0,12,0.00,,,0.00,Rainwise IP-100,2013-07-10 23:06:00,
2013-07-10 16:11:00,94.5,35.0,29.14,SW,225,2.6,-999.0,12,0.00,,,0.00,Rainwise IP-100,2013-07-10 23:11:00,
2013-07-10 16:16:00,94.8,35.0,29.14,SSE,157,4.0,-999.0,12,0.00,,,0.00,Rainwise IP-100,2013-07-10 23:16:00,
2013-07-10 16:21:00,95.0,35.0,29.15,WSW,247,4.0,-999.0,12,0.00,,,0.00,Rainwise IP-100,2013-07-10 23:21:00,
2013-07-10 16:26:00,95.1,35.0,29.15,SSW,202,2.3,-999.0,12,0.00,,,0.00,Rainwise IP-100,2013-07-10 23:26:00,
2013-07-10 16:31:00,95.0,35.0,29.14,SSW,202,2.6,-999.0,12,0.00,,,0.00,Rainwise IP-100,2013-07-10 23:31:00,
2013-07-10 16:36:00,95.1,35.0,29.14,SSW,202,5.6,-999.0,12,0.00,,,0.00,Rainwise IP-100,2013-07-10 23:36:00,
2013-07-10 16:41:00,95.1,35.0,29.14,WSW,247,5.6,-999.0,12,0.00,,,0.00,Rainwise IP-100,2013-07-10 23:41:00,
2013-07-10 16:46:00,94.7,35.0,29.14,WSW,247,5.6,-999.0,12,0.00,,,0.00,Rainwise IP-100,2013-07-10 23:46:00,
2013-07-10 16:51:00,94.3,35.0,29.13,South,180,1.4,-999.0,12,0.00,,,0.00,Rainwise IP-100,2013-07-10 23:51:00,
2013-07-10 16:56:00,94.1,33.0,29.13,SW,225,9.3,-999.0,12,0.00,,,0.00,Rainwise IP-100,2013-07-10 23:56:00,
2013-07-10 17:01:00,93.8,33.0,29.13,SSE,157,1.9,-999.0,12,0.00,,,0.00,Rainwise IP-100,2013-07-11 00:01:00,
2013-07-10 17:06:00,93.6,33.0,29.13,SSW,202,4.0,-999.0,12,0.00,,,0.00,Rainwise IP-100,2013-07-11 00:06:00,
2013-07-10 17:11:00,93.6,36.0,29.13,SSW,202,4.0,-999.0,13,0.00,,,0.00,Rainwise IP-100,2013-07-11 00:11:00,
2013-07-10 17:16:00,93.2,33.0,29.13,SW,225,5.1,-999.0,12,0.00,,,0.00,Rainwise IP-100,2013-07-11 00:16:00,
2013-07-10 17:21:00,93.5,36.0,29.12,SW,225,4.4,-999.0,13,0.00,,,0.00,Rainwise IP-100,2013-07-11 00:21:00,
2013-07-10 17:26:00,93.8,36.0,29.12,SSW,202,4.7,-999.0,13,0.00,,,0.00,Rainwise IP-100,2013-07-11 00:26:00,
2013-07-10 17:31:00,93.3,33.0,29.12,WNW,292,3.7,-999.0,12,0.00,,,0.00,Rainwise IP-100,2013-07-11 00:31:00,
2013-07-10 17:36:00,92.9,33.0,29.12,SW,225,10.0,-999.0,12,0.00,,,0.00,Rainwise IP-100,2013-07-11 00:36:00,
2013-07-10 17:41:00,92.8,35.0,29.12,SSW,202,2.1,-999.0,13,0.00,,,0.00,Rainwise IP-100,2013-07-11 00:41:00,
2013-07-10 17:46:00,92.5,32.0,29.12,SSW,202,1.9,-999.0,12,0.00,,,0.00,Rainwise IP-100,2013-07-11 00:46:00,
2013-07-10 17:51:00,92.0,32.0,29.12,SSW,202,8.6,-999.0,12,0.00,,,0.00,Rainwise IP-100,2013-07-11 00:51:00,
2013-07-10 17:56:00,91.8,32.0,29.12,SW,225,1.4,-999.0,12,0.00,,,0.00,Rainwise IP-100,2013-07-11 00:56:00,
2013-07-10 18:01:00,91.8,35.0,29.12,SSW,202,0.0,-999.0,13,0.00,,,0.00,Rainwise IP-100,2013-07-11 01:01:00,
2013-07-10 18:06:00,91.7,35.0,29.12,SSW,202,2.1,-999.0,13,0.00,,,0.00,Rainwise IP-100,2013-07-11 01:06:00,
2013-07-10 18:11:00,91.7,35.0,29.12,SSW,202,4.7,-999.0,13,0.00,,,0.00,Rainwise IP-100,2013-07-11 01:11:00,
2013-07-10 18:16:00,91.6,33.0,29.12,WNW,292,0.0,-999.0,13,0.00,,,0.00,Rainwise IP-100,2013-07-11 01:16:00,
2013-07-10 18:21:00,91.7,32.0,29.12,WNW,292,1.6,-999.0,12,0.00,,,0.00,Rainwise IP-100,2013-07-11 01:21:00,
2013-07-10 18:26:00,92.2,32.0,29.12,SSW,202,3.0,-999.0,12,0.00,,,0.00,Rainwise IP-100,2013-07-11 01:26:00,
2013-07-10 18:31:00,91.7,35.0,29.12,ESE,112,2.6,-999.0,13,0.00,,,0.00,Rainwise IP-100,2013-07-11 01:31:00,
2013-07-10 18:36:00,90.5,33.0,29.12,SSE,157,2.1,-999.0,13,0.00,,,0.00,Rainwise IP-100,2013-07-11 01:36:00,
2013-07-10 18:41:00,90.2,33.0,29.12,NNE,22,3.3,-999.0,13,0.00,,,0.00,Rainwise IP-100,2013-07-11 01:41:00,
2013-07-10 18:46:00,90.6,33.0,29.12,SSE,157,0.0,-999.0,13,0.00,,,0.00,Rainwise IP-100,2013-07-11 01:46:00,
2013-07-10 18:51:00,90.0,35.0,29.12,East,90,0.0,-999.0,14,0.00,,,0.00,Rainwise IP-100,2013-07-11 01:51:00,
2013-07-10 18:56:00,89.7,35.0,29.12,WSW,247,0.0,-999.0,14,0.00,,,0.00,Rainwise IP-100,2013-07-11 01:56:00,
2013-07-10 19:01:00,90.0,35.0,29.12,NNW,337,0.0,-999.0,14,0.00,,,0.00,Rainwise IP-100,2013-07-11 02:01:00,
2013-07-10 19:06:00,89.9,35.0,29.12,SSW,202,0.0,-999.0,14,0.00,,,0.00,Rainwise IP-100,2013-07-11 02:06:00,
2013-07-10 19:11:00,89.1,33.0,29.12,ESE,112,2.8,-999.0,14,0.00,,,0.00,Rainwise IP-100,2013-07-11 02:11:00,
2013-07-10 19:16:00,87.0,32.0,29.12,NE,45,0.0,-999.0,14,0.00,,,0.00,Rainwise IP-100,2013-07-11 02:16:00,
2013-07-10 19:21:00,86.8,33.0,29.12,SSW,202,0.0,-999.0,15,0.00,,,0.00,Rainwise IP-100,2013-07-11 02:21:00,
2013-07-10 19:26:00,87.2,35.0,29.12,WSW,247,1.6,-999.0,15,0.00,,,0.00,Rainwise IP-100,2013-07-11 02:26:00,
2013-07-10 19:31:00,85.8,35.0,29.12,SSE,157,0.0,-999.0,16,0.00,,,0.00,Rainwise IP-100,2013-07-11 02:31:00,
2013-07-10 19:36:00,84.0,35.0,29.12,ESE,112,0.0,-999.0,17,0.00,,,0.00,Rainwise IP-100,2013-07-11 02:36:00,
2013-07-10 19:41:00,82.7,35.0,29.12,ESE,112,2.1,-999.0,18,0.00,,,0.00,Rainwise IP-100,2013-07-11 02:41:00,
2013-07-10 19:46:00,81.5,37.0,29.12,NNE,22,0.0,-999.0,20,0.00,,,0.00,Rainwise IP-100,2013-07-11 02:46:00,
2013-07-10 19:51:00,80.2,36.0,29.12,WSW,247,2.3,-999.0,20,0.00,,,0.00,Rainwise IP-100,2013-07-11 02:51:00,
2013-07-10 19:56:00,79.3,33.0,29.12,South,180,0.0,-999.0,19,0.00,,,0.00,Rainwise IP-100,2013-07-11 02:56:00,
2013-07-10 20:01:00,78.3,36.0,29.12,WNW,292,0.0,-999.0,21,0.00,,,0.00,Rainwise IP-100,2013-07-11 03:01:00,
2013-07-10 20:06:00,76.9,36.0,29.13,NNW,337,0.0,-999.0,22,0.00,,,0.00,Rainwise IP-100,2013-07-11 03:06:00,
2013-07-10 20:11:00,75.9,35.0,29.13,NNW,337,0.0,-999.0,22,0.00,,,0.00,Rainwise IP-100,2013-07-11 03:11:00,
2013-07-10 20:16:00,75.4,33.0,29.13,NNW,337,0.0,-999.0,21,0.00,,,0.00,Rainwise IP-100,2013-07-11 03:16:00,
2013-07-10 20:21:00,74.6,35.0,29.12,WSW,247,3.0,-999.0,23,0.00,,,0.00,Rainwise IP-100,2013-07-11 03:21:00,
2013-07-10 20:26:00,73.4,36.0,29.13,WSW,247,1.6,-999.0,25,0.00,,,0.00,Rainwise IP-100,2013-07-11 03:26:00,
2013-07-10 20:31:00,72.6,35.0,29.13,WSW,247,0.0,-999.0,25,0.00,,,0.00,Rainwise IP-100,2013-07-11 03:31:00,
2013-07-10 20:36:00,72.3,35.0,29.13,NNE,22,0.0,-999.0,25,0.00,,,0.00,Rainwise IP-100,2013-07-11 03:36:00,
2013-07-10 20:41:00,71.6,33.0,29.13,ENE,67,0.0,-999.0,24,0.00,,,0.00,Rainwise IP-100,2013-07-11 03:41:00,
2013-07-10 20:46:00,71.0,33.0,29.13,ENE,67,0.0,-999.0,25,0.00,,,0.00,Rainwise IP-100,2013-07-11 03:46:00,
2013-07-10 20:51:00,70.3,35.0,29.13,ENE,67,0.0,-999.0,26,0.00,,,0.00,Rainwise IP-100,2013-07-11 03:51:00,
2013-07-10 20:56:00,69.5,35.0,29.13,West,270,0.0,-999.0,28,0.00,,,0.00,Rainwise IP-100,2013-07-11 03:56:00,
2013-07-10 21:01:00,68.9,33.0,29.13,West,270,1.9,-999.0,27,0.00,,,0.00,Rainwise IP-100,2013-07-11 04:01:00,
2013-07-10 21:06:00,68.3,33.0,29.14,West,270,0.0,-999.0,27,0.00,,,0.00,Rainwise IP-100,2013-07-11 04:06:00,
2013-07-10 21:11:00,67.5,35.0,29.14,West,270,0.0,-999.0,29,0.00,,,0.00,Rainwise IP-100,2013-07-11 04:11:00,
2013-07-10 21:16:00,66.7,33.0,29.14,WNW,292,0.0,-999.0,29,0.00,,,0.00,Rainwise IP-100,2013-07-11 04:16:00,
2013-07-10 21:21:00,66.0,33.0,29.14,WNW,292,1.4,-999.0,30,0.00,,,0.00,Rainwise IP-100,2013-07-11 04:21:00,
2013-07-10 21:26:00,65.6,33.0,29.14,WNW,292,0.0,-999.0,30,0.00,,,0.00,Rainwise IP-100,2013-07-11 04:26:00,
2013-07-10 21:31:00,65.2,33.0,29.15,WNW,292,0.0,-999.0,30,0.00,,,0.00,Rainwise IP-100,2013-07-11 04:31:00,
2013-07-10 21:36:00,64.8,33.0,29.15,WNW,292,1.6,-999.0,30,0.00,,,0.00,Rainwise IP-100,2013-07-11 04:36:00,
2013-07-10 21:41:00,64.2,33.0,29.15,WSW,247,1.2,-999.0,31,0.00,,,0.00,Rainwise IP-100,2013-07-11 04:41:00,
2013-07-10 21:46:00,63.6,32.0,29.15,NW,315,0.0,-999.0,31,0.00,,,0.00,Rainwise IP-100,2013-07-11 04:46:00,
2013-07-10 21:51:00,63.1,33.0,29.15,WNW,292,0.0,-999.0,32,0.00,,,0.00,Rainwise IP-100,2013-07-11 04:51:00,
2013-07-10 21:56:00,62.7,33.0,29.15,WNW,292,1.4,-999.0,33,0.00,,,0.00,Rainwise IP-100,2013-07-11 04:56:00,
2013-07-10 22:01:00,62.4,32.0,29.15,WNW,292,1.2,-999.0,32,0.00,,,0.00,Rainwise IP-100,2013-07-11 05:01:00,
2013-07-10 22:06:00,62.1,32.0,29.15,WNW,292,0.0,-999.0,33,0.00,,,0.00,Rainwise IP-100,2013-07-11 05:06:00,
2013-07-10 22:11:00,61.8,32.0,29.15,WNW,292,1.6,-999.0,33,0.00,,,0.00,Rainwise IP-100,2013-07-11 05:11:00,
2013-07-10 22:16:00,61.3,32.0,29.15,WSW,247,0.0,-999.0,33,0.00,,,0.00,Rainwise IP-100,2013-07-11 05:16:00,
2013-07-10 22:21:00,60.5,32.0,29.15,WSW,247,0.0,-999.0,34,0.00,,,0.00,Rainwise IP-100,2013-07-11 05:21:00,
2013-07-10 22:26:00,60.1,32.0,29.15,WSW,247,0.0,-999.0,35,0.00,,,0.00,Rainwise IP-100,2013-07-11 05:26:00,
2013-07-10 22:31:00,59.9,32.0,29.15,WSW,247,1.4,-999.0,35,0.00,,,0.00,Rainwise IP-100,2013-07-11 05:31:00,
2013-07-10 22:36:00,59.7,32.0,29.15,WSW,247,0.0,-999.0,35,0.00,,,0.00,Rainwise IP-100,2013-07-11 05:36:00,
2013-07-10 22:41:00,59.4,31.0,29.15,WSW,247,0.0,-999.0,34,0.00,,,0.00,Rainwise IP-100,2013-07-11 05:41:00,
2013-07-10 22:46:00,59.1,32.0,29.15,WSW,247,0.0,-999.0,35,0.00,,,0.00,Rainwise IP-100,2013-07-11 05:46:00,
2013-07-10 22:51:00,58.8,32.0,29.15,WSW,247,1.6,-999.0,36,0.00,,,0.00,Rainwise IP-100,2013-07-11 05:51:00,
2013-07-10 22:56:00,58.5,35.0,29.15,WSW,247,0.0,-999.0,39,0.00,,,0.00,Rainwise IP-100,2013-07-11 05:56:00,
2013-07-10 23:01:00,58.2,35.0,29.15,WSW,247,0.0,-999.0,40,0.00,,,0.00,Rainwise IP-100,2013-07-11 06:01:00,
2013-07-10 23:06:00,57.6,33.0,29.15,WSW,247,1.6,-999.0,40,0.00,,,0.00,Rainwise IP-100,2013-07-11 06:06:00,
2013-07-10 23:11:00,57.1,33.0,29.15,WSW,247,0.0,-999.0,40,0.00,,,0.00,Rainwise IP-100,2013-07-11 06:11:00,
2013-07-10 23:16:00,56.9,35.0,29.15,WSW,247,0.0,-999.0,42,0.00,,,0.00,Rainwise IP-100,2013-07-11 06:16:00,
2013-07-10 23:21:00,56.7,33.0,29.15,WSW,247,0.0,-999.0,41,0.00,,,0.00,Rainwise IP-100,2013-07-11 06:21:00,
2013-07-10 23:26:00,56.3,33.0,29.15,WSW,247,1.2,-999.0,42,0.00,,,0.00,Rainwise IP-100,2013-07-11 06:26:00,
2013-07-10 23:31:00,56.0,33.0,29.15,WSW,247,0.0,-999.0,42,0.00,,,0.00,Rainwise IP-100,2013-07-11 06:31:00,
2013-07-10 23:36:00,56.1,33.0,29.15,WSW,247,0.0,-999.0,42,0.00,,,0.00,Rainwise IP-100,2013-07-11 06:36:00,
2013-07-10 23:41:00,56.1,32.0,29.16,WSW,247,1.9,-999.0,40,0.00,,,0.00,Rainwise IP-100,2013-07-11 06:41:00,
2013-07-10 23:46:00,55.8,32.0,29.15,WSW,247,0.0,-999.0,40,0.00,,,0.00,Rainwise IP-100,2013-07-11 06:46:00,
2013-07-10 23:51:00,55.7,32.0,29.15,WSW,247,0.0,-999.0,40,0.00,,,0.00,Rainwise IP-100,2013-07-11 06:51:00,
2013-07-10 23:56:00,55.6,33.0,29.16,WSW,247,1.6,-999.0,42,0.00,,,0.00,Rainwise IP-100,2013-07-11 06:56:00,